Location: Glasgow
(55.8642°N, 4.2518°W)
Time: 16:10:00
(UTC+01:00)

ISS - Pass Details

Date: 09 October 2017
Orbit: 400 x 408 km, 51.6° (Epoch: 24 October)

Event Time Altitude Azimuth Distance (km) Brightness Sun altitude
Rises 20:55:02 0° 272° (W) 2,330 1.3 -20.7°
Reaches altitude 10° 20:57:38 10° 251° (WSW) 1,469 -0.3 -21.1°
Maximum altitude 20:59:46 16° 210° (SSW) 1,146 -1.5 -21.4°
Enters shadow 20:59:48 16° 209° (SSW) 1,146 -1.5 -21.4°
